SCP
0 0 0 0 0 0 0 0 0 0 0 0 0 0 0 0 0 0 0 0 0 0 0 0 0 0 0 0 0 0 0 0 0 0 0 0 1 1
0 0 0 0 0 0 0 0 0 0 0 0 0 0 0 0 0 0 0 0 0 0 0 0 0 0 0 0 0 0 0 0 0 0 0 0 0 1
0 0 0 0 0 0 0 0 0 0 0 0 0 0 0 0 0 0 0 0 0 0 0 0 0 0 0 0 0 0 0 0 0 0 0 0 0 0
0 0 0 0 0 0 0 0 0 0 0 0 0 0 0 0 0 0 0 0 0 0 0 0 0 0 0 0 0 0 0 0 0 0 0 0 0 0
0 0 0 0 0 0 0 0 0 0 0 0 0 0 0 0 0 0 0 0 0 0 0 0 0 0 0 0 0 0 0 0 0 0 0 0 0 0
0 0 0 0 0 0 0 0 0 0 0 0 0 0 0 0 0 0 0 0 0 0 0 0 0 0 0 0 0 0 0 0 0 0 0 0 0 0
0 0 0 0 0 0 0 0 0 0 0 0 0 0 0 0 0 0 0 0 0 0 0 0 0 0 0 0 0 0 0 0 0 0 0 0 0 0
0 0 0 0 0 0 0 0 0 0 0 0 0 0 0 0 0 0 0 0 0 0 0 0 0 0 0 0 0 0 0 0 0 0 0 0 0 0
0 0 0 0 0 0 0 0 0 0 0 0 0 0 0 0 0 0 0 0 0 0 0 0 0 0 0 0 0 0 0 0 0 0 0 0 0 0
0 0 0 0 0 0 0 0 0 0 0 0 0 0 0 0 0 0 0 0 0 0 0 0 0 0 0 0 0 0 0 0 0 0 0 0 0 0
0 0 0 0 0 0 0 0 0 0 0 0 0 0 0 0 0 0 0 0 0 0 0 0 0 0 0 0 0 0 0 0 0 0 0 0 0 0
0 0 0 0 0 0 0 0 0 0 0 0 0 0 0 0 0 0 0 0 0 0 0 0 0 0 0 0 0 0 0 0 0 0 0 0 0 0
0 0 0 0 0 0 0 0 0 0 0 0 0 0 0 0 0 0 0 0 0 0 0 0 0 0 0 0 0 0 0 0 0 0 0 0 0 0
0 0 0 0 0 0 0 0 0 0 0 0 0 0 0 0 0 0 0 0 0 0 0 0 0 0 0 0 0 0 0 0 0 0 0 0 0 0
0 0 0 0 0 0 0 0 0 0 0 0 0 0 0 0 0 0 0 0 0 0 0 0 0 0 0 0 0 0 0 0 0 0 0 0 0 0
0 0 0 0 0 0 0 0 0 0 0 0 0 0 0 0 0 0 0 0 0 0 0 0 0 0 0 0 0 0 0 0 0 0 0 0 0 0
0 0 0 0 0 0 0 0 0 0 0 0 0 0 0 0 0 0 0 0 0 0 0 0 0 0 0 0 0 0 0 0 0 0 0 0 0 0
0 0 0 0 0 0 0 0 0 0 0 0 0 0 0 0 0 0 0 0 0 0 0 0 0 0 0 0 0 0 0 0 0 0 0 0 0 0
0 0 0 0 0 0 0 0 0 0 0 0 0 0 0 0 0 0 0 0 0 0 0 0 0 0 0 0 0 0 0 0 0 0 0 0 0 0
0 0 0 0 0 0 0 0 0 0 0 0 0 0 0 0 0 0 0 0 0 0 0 0 0 0 0 0 0 0 0 0 0 0 0 0 0 0
0 0 0 0 0 0 0 0 0 0 0 0 0 0 0 0 0 0 0 0 0 0 0 0 0 0 0 0 0 0 0 0 0 0 0 0 0 0
0 0 0 0 0 0 0 0 0 0 0 0 0 0 0 0 0 0 0 0 0 0 0 0 0 0 0 0 0 0 0 0 0 0 0 0 0 0
0 0 0 0 0 0 0 0 0 0 0 0 0 0 0 0 0 0 0 0 0 0 0 0 0 0 0 0 0 0 0 0 0 0 0 0 0 0
Wind_Speed
5 5 4 4 3 3 3 4 4 5 5 3 2 2 2 3 3 4 5 6 7 8 9 9 9 9 10 11 12 13 13 13 13 13 13 13 13 13
4 5 5 4 3 3 4 4 5 5 5 2 3 2 3 3 4 5 5 6 7 8 9 9 9 10 10 11 12 12 13 13 13 13 13 14 13 13
5 6 6 5 4 4 4 4 4 5 7 5 3 3 4 4 3 4 5 5 5 7 9 10 10 10 10 11 11 12 12 13 13 13 13 13 13 13
5 6 6 5 6 5 4 5 5 5 6 7 4 3 4 4 4 5 4 4 5 6 9 10 10 10 11 11 11 12 11 12 12 12 13 13 13 13
5 5 6 6 6 5 5 5 5 4 5 5 5 3 3 3 4 4 5 5 5 5 8 9 10 10 11 11 11 11 11 11 11 11 12 12 13 13
4 4 5 5 6 6 5 6 5 5 5 5 5 4 3 3 3 4 4 4 4 4 6 7 8 10 11 11 11 11 11 11 11 11 11 12 12 12
3 4 4 4 5 5 4 5 5 5 5 5 5 4 4 3 4 3 5 5 5 4 4 4 5 5 6 8 9 10 10 11 11 11 11 11 11 11
3 3 4 4 5 6 6 6 6 6 6 6 6 6 6 5 4 4 4 4 5 2 4 5 4 6 5 5 7 9 10 11 12 11 11 10 11 11
4 3 3 3 4 5 5 7 7 7 8 7 8 8 7 6 5 6 5 6 6 3 4 6 5 6 5 5 8 10 11 11 10 10 10 10 9 10
4 4 4 4 4 4 4 5 5 6 6 6 7 7 6 5 5 6 6 6 5 3 3 6 5 6 5 5 7 9 10 10 10 10 10 10 10 10
4 4 4 5 5 5 5 5 6 5 6 7 7 7 7 6 4 3 3 4 5 4 2 4 4 5 6 5 5 7 8 9 9 10 10 10 9 9
3 3 4 6 6 6 6 5 6 6 4 5 6 7 6 5 5 4 4 4 4 4 2 2 3 3 5 3 3 4 5 7 9 10 10 10 10 6
4 3 3 6 7 7 7 5 7 5 4 4 4 4 3 3 3 4 4 4 5 5 2 3 3 4 5 5 4 4 4 4 5 6 8 9 9 8
4 4 4 5 7 7 6 7 7 5 3 3 3 4 4 4 3 3 4 4 5 5 4 4 4 4 5 6 5 4 4 4 4 5 4 6 7 8
4 6 6 7 7 6 7 7 5 3 3 4 4 4 4 3 3 3 3 3 4 4 4 4 5 4 5 6 5 5 5 4 4 4 4 4 4 4
5 4 6 6 6 5 4 4 4 3 4 4 4 4 3 3 3 3 3 3 4 4 3 3 4 5 5 6 6 6 5 4 3 4 4 4 4 4
4 3 3 3 3 3 3 3 3 3 4 4 4 4 3 3 3 3 3 3 4 4 3 2 3 3 5 5 5 5 5 4 4 4 4 4 4 4
4 3 4 4 4 4 4 4 4 4 4 4 4 4 4 4 4 3 3 4 4 4 4 3 3 3 3 4 6 6 4 4 4 4 4 4 5 4
4 4 4 5 5 4 4 5 5 4 4 4 4 4 4 4 4 4 4 4 4 4 4 3 3 3 4 5 3 4 4 4 3 3 3 4 5 5
4 5 5 5 5 5 5 5 5 4 4 5 5 4 4 4 4 5 4 5 5 4 4 4 4 4 5 5 4 3 5 5 4 4 4 4 5 6
4 5 5 5 5 5 5 5 5 5 5 5 5 5 5 5 5 5 5 5 5 5 5 5 4 4 4 3 3 4 3 5 5 4 4 4 4 4
5 5 5 5 5 5 5 5 5 5 5 5 5 5 5 5 6 6 5 5 5 5 6 4 3 3 4 5 5 5 4 3 4 6 7 7 4 4
5 5 5 5 5 5 5 5 6 6 5 5 5 5 5 5 5 5 5 5 5 5 5 4 3 3 4 4 5 4 5 4 3 3 4 6 8 9
Wind_Direction
217 217 221 225 226 231 234 235 242 253 254 237 232 222 251 270 284 276 278 281 276 277 277 278 278 279 280 282 283 284 285 285 286 287 288 287 285 280
217 216 220 223 223 223 228 236 243 251 258 254 239 257 267 275 281 278 277 282 270 274 275 276 276 277 279 280 281 282 283 285 287 288 288 287 286 283
219 218 222 221 222 221 223 230 236 240 251 261 257 263 263 274 283 281 280 275 273 270 274 273 274 276 278 280 280 282 283 285 287 287 287 287 286 284
220 220 223 220 223 224 222 228 234 236 244 258 260 260 267 278 282 282 284 283 280 279 274 273 275 277 279 281 282 283 284 285 285 285 286 286 284 283
223 223 227 222 225 225 225 230 235 238 241 252 261 264 271 280 283 281 282 280 281 281 275 270 272 277 280 281 281 280 281 281 282 284 286 285 284 284
231 229 229 226 230 231 230 233 234 237 240 248 255 263 267 278 275 280 284 279 279 283 271 272 274 274 276 278 279 278 278 279 280 281 283 282 281 281
235 237 239 239 241 238 237 236 232 236 238 243 251 257 256 263 263 272 276 284 278 268 280 281 282 278 276 275 273 274 278 280 279 279 279 279 279 279
235 242 246 242 245 244 245 244 239 236 239 242 248 251 256 256 262 263 272 284 279 263 280 281 277 274 274 273 282 283 279 279 278 277 278 279 280 280
238 240 243 251 241 242 245 247 247 250 247 248 252 254 261 256 257 261 260 267 272 290 286 279 276 274 278 279 285 283 282 280 278 278 277 280 284 284
248 244 246 254 252 246 241 243 248 251 252 252 259 266 274 273 257 262 267 275 281 273 264 275 281 280 287 281 284 282 280 280 282 281 279 278 280 283
258 254 255 261 266 250 243 250 257 262 261 259 268 278 282 278 267 262 262 265 275 271 251 268 286 295 289 280 283 284 284 285 285 284 285 284 282 281
263 259 259 264 268 250 246 250 257 265 271 272 270 276 276 271 254 244 244 254 272 271 224 253 279 298 289 278 290 298 290 287 290 291 287 286 286 279
270 268 268 267 264 258 254 255 265 274 267 264 267 270 271 265 256 256 257 253 256 262 254 256 270 272 272 288 293 291 290 293 297 294 293 289 284 277
273 275 276 271 265 266 262 269 273 271 265 262 262 262 262 261 263 263 266 268 273 274 266 257 260 261 270 278 282 288 290 292 290 289 292 296 290 284
276 279 280 278 274 269 271 274 271 260 256 256 258 261 262 265 267 266 270 270 274 275 266 259 263 265 263 267 276 285 292 290 280 280 287 290 286 287
279 280 278 279 274 276 277 266 257 253 251 254 262 270 272 259 253 255 263 268 271 270 266 269 269 262 260 267 269 274 274 276 285 286 287 284 280 275
280 276 274 275 270 268 267 263 255 248 247 254 260 265 265 261 257 256 256 260 262 273 277 270 270 271 270 268 265 263 266 272 279 288 286 287 284 276
274 265 267 268 268 269 268 266 258 254 253 253 255 256 259 257 260 254 252 252 258 266 271 278 277 278 273 265 245 258 265 273 283 283 276 279 284 287
265 260 260 263 264 265 265 262 261 260 257 250 249 251 253 255 255 254 251 253 257 263 267 267 263 255 263 274 265 236 262 276 278 276 273 274 281 290
260 261 262 263 264 262 260 259 260 259 251 249 249 248 248 250 252 252 252 255 260 263 264 257 250 248 253 271 281 279 260 262 266 272 280 283 282 288
261 262 263 263 263 264 264 261 259 257 254 251 250 248 246 246 250 251 253 253 253 254 256 258 262 267 272 267 263 265 266 258 269 272 279 286 290 289
265 262 262 262 261 260 260 260 260 258 254 249 250 249 247 245 247 248 246 246 246 250 258 265 263 250 243 244 257 271 280 281 277 279 273 265 265 270
268 265 262 260 257 256 255 252 251 254 254 254 252 248 246 245 246 246 245 243 246 248 252 255 251 245 246 250 256 264 271 277 280 280 274 276 275 276